AFR24ZK LFPG-LFLL

Flight info

Callsign AFR24ZK
Flight time 0h 42m
Altitude 27000
Route OKASI DCT OKEKO DCT OKEPI DCT MOU/N0381F190 A3 FEDZI
Aircraft A319/M-SDE3FGHIRWY/LB1

Departure

Time 2026-05-08 19:58
Airport Charles de Gaulle International Airport (LFPG)

Arrival

Time 2026-05-08 20:41
Airport Lyon Saint-Exupéry Airport (LFLL)
Time Latitude Longitude Altitude Speed Heading
2026-05-08 19:23 49.00687 2.58021 354 ft 0 kts 254°
2026-05-08 19:42 49.00689 2.58031 353 ft 4 kts 255°
2026-05-08 19:43 49.00695 2.58070 362 ft 4 kts 261°
2026-05-08 19:43 49.00697 2.58111 359 ft 4 kts 284°
2026-05-08 19:43 49.00687 2.58135 358 ft 1 kts 355°
2026-05-08 19:43 49.00686 2.58135 358 ft 0 kts 355°
2026-05-08 19:45 49.00687 2.58135 358 ft 0 kts 355°
2026-05-08 19:45 49.00702 2.58133 358 ft 5 kts 355°
2026-05-08 19:45 49.00736 2.58129 353 ft 2 kts 355°
2026-05-08 19:46 49.00737 2.58129 353 ft 0 kts 355°
2026-05-08 19:47 49.00738 2.58129 353 ft 1 kts 355°
2026-05-08 19:47 49.00774 2.58124 354 ft 7 kts 355°
2026-05-08 19:48 49.00825 2.58117 355 ft 7 kts 353°
2026-05-08 19:48 49.00879 2.58100 361 ft 9 kts 334°
2026-05-08 19:48 49.00902 2.57990 355 ft 14 kts 266°
2026-05-08 19:48 49.00893 2.57820 359 ft 17 kts 265°
2026-05-08 19:49 49.00883 2.57635 355 ft 18 kts 265°
2026-05-08 19:49 49.00872 2.57444 355 ft 18 kts 265°
2026-05-08 19:49 49.00861 2.57248 355 ft 19 kts 265°
2026-05-08 19:49 49.00852 2.57080 355 ft 16 kts 266°
2026-05-08 19:50 49.00844 2.56908 355 ft 17 kts 265°
2026-05-08 19:50 49.00834 2.56729 355 ft 17 kts 265°
2026-05-08 19:50 49.00823 2.56545 355 ft 18 kts 265°
2026-05-08 19:50 49.00809 2.56365 358 ft 17 kts 262°
2026-05-08 19:51 49.00791 2.56180 359 ft 18 kts 262°
2026-05-08 19:51 49.00773 2.55991 355 ft 19 kts 262°
2026-05-08 19:51 49.00755 2.55794 355 ft 19 kts 262°
2026-05-08 19:51 49.00738 2.55592 358 ft 20 kts 263°
2026-05-08 19:52 49.00722 2.55383 361 ft 20 kts 262°
2026-05-08 19:52 49.00634 2.55249 362 ft 19 kts 174°
2026-05-08 19:52 49.00504 2.55304 356 ft 20 kts 164°
2026-05-08 19:52 49.00369 2.55363 353 ft 20 kts 163°
2026-05-08 19:53 49.00233 2.55422 354 ft 20 kts 164°
2026-05-08 19:53 49.00101 2.55480 353 ft 20 kts 163°
2026-05-08 19:53 48.99985 2.55530 360 ft 15 kts 164°
2026-05-08 19:53 48.99892 2.55593 354 ft 15 kts 140°
2026-05-08 19:54 48.99847 2.55686 358 ft 9 kts 114°
2026-05-08 19:54 48.99827 2.55779 356 ft 10 kts 103°
2026-05-08 19:54 48.99813 2.55884 358 ft 11 kts 110°
2026-05-08 19:54 48.99796 2.55973 361 ft 5 kts 104°
2026-05-08 19:55 48.99782 2.56024 360 ft 4 kts 133°
2026-05-08 19:55 48.99767 2.56027 357 ft 0 kts 177°
2026-05-08 19:55 48.99764 2.56027 356 ft 2 kts 177°
2026-05-08 19:56 48.99729 2.56031 354 ft 8 kts 175°
2026-05-08 19:56 48.99669 2.56038 358 ft 9 kts 175°
2026-05-08 19:56 48.99613 2.56069 361 ft 8 kts 121°
2026-05-08 19:56 48.99614 2.56109 359 ft 0 kts 83°
2026-05-08 19:57 48.99614 2.56116 360 ft 7 kts 83°
2026-05-08 19:57 48.99663 2.56995 352 ft 113 kts 85°
2026-05-08 19:57 48.99742 2.58495 395 ft 165 kts 85°
2026-05-08 19:58 48.99808 2.59675 848 ft 166 kts 83°
2026-05-08 19:58 48.99904 2.61414 1732 ft 164 kts 84°
2026-05-08 19:58 48.99994 2.63148 2413 ft 172 kts 85°
2026-05-08 19:58 49.00094 2.65107 2878 ft 195 kts 85°
2026-05-08 19:59 49.00211 2.67317 3435 ft 221 kts 85°
2026-05-08 19:59 49.00339 2.69753 4038 ft 246 kts 86°
2026-05-08 19:59 49.00478 2.72430 4896 ft 259 kts 86°
2026-05-08 19:59 49.00622 2.75203 5939 ft 266 kts 86°
2026-05-08 20:00 49.00726 2.78053 6906 ft 273 kts 94°
2026-05-08 20:00 49.00527 2.80960 7837 ft 279 kts 99°
2026-05-08 20:00 49.00134 2.83889 8772 ft 285 kts 111°
2026-05-08 20:00 48.99097 2.86474 9710 ft 289 kts 136°
2026-05-08 20:01 48.97450 2.88191 10567 ft 290 kts 161°
2026-05-08 20:01 48.95429 2.88733 11067 ft 306 kts 186°
2026-05-08 20:01 48.93342 2.87862 11603 ft 319 kts 204°
2026-05-08 20:01 48.91291 2.86577 12394 ft 325 kts 204°
2026-05-08 20:02 48.89175 2.85269 13218 ft 331 kts 203°
2026-05-08 20:02 48.87018 2.83956 14033 ft 336 kts 203°
2026-05-08 20:02 48.84828 2.82629 14763 ft 341 kts 203°
2026-05-08 20:02 48.82610 2.81289 15508 ft 345 kts 203°
2026-05-08 20:03 48.80369 2.79940 16244 ft 348 kts 203°
2026-05-08 20:03 48.78104 2.78580 16992 ft 352 kts 204°
2026-05-08 20:03 48.75816 2.77201 17729 ft 355 kts 204°
2026-05-08 20:03 48.73525 2.75840 18377 ft 363 kts 201°
2026-05-08 20:04 48.70992 2.75195 18758 ft 379 kts 181°
2026-05-08 20:04 48.68364 2.75889 19281 ft 390 kts 166°
2026-05-08 20:04 48.65711 2.77084 19873 ft 395 kts 165°
2026-05-08 20:04 48.63099 2.78290 20440 ft 400 kts 165°
2026-05-08 20:05 48.60424 2.79532 21001 ft 406 kts 165°
2026-05-08 20:05 48.57702 2.80792 21563 ft 411 kts 164°
2026-05-08 20:05 48.54954 2.82061 22122 ft 416 kts 164°
2026-05-08 20:05 48.52162 2.83343 22665 ft 421 kts 164°
2026-05-08 20:06 48.49347 2.84630 23187 ft 426 kts 164°
2026-05-08 20:06 48.46491 2.85930 23703 ft 431 kts 164°
2026-05-08 20:06 48.43608 2.87236 24141 ft 434 kts 164°
2026-05-08 20:06 48.40701 2.88549 24596 ft 437 kts 164°
2026-05-08 20:07 48.37774 2.89872 25056 ft 440 kts 165°
2026-05-08 20:07 48.34839 2.91201 25508 ft 442 kts 165°
2026-05-08 20:07 48.31880 2.92540 25945 ft 445 kts 165°
2026-05-08 20:07 48.28901 2.93886 26395 ft 448 kts 165°
2026-05-08 20:08 48.25947 2.95219 26834 ft 450 kts 165°
2026-05-08 20:08 48.22942 2.96577 27019 ft 451 kts 165°
2026-05-08 20:08 48.19960 2.97925 27063 ft 445 kts 165°
2026-05-08 20:08 48.17002 2.99259 27055 ft 443 kts 165°
2026-05-08 20:09 48.14054 3.00582 27050 ft 442 kts 165°
2026-05-08 20:09 48.11110 3.01901 27060 ft 441 kts 165°
2026-05-08 20:09 48.08173 3.03217 27063 ft 441 kts 165°
2026-05-08 20:09 48.05229 3.04534 27056 ft 441 kts 165°
2026-05-08 20:10 48.02298 3.05844 27052 ft 440 kts 165°
2026-05-08 20:10 47.99358 3.07157 27045 ft 440 kts 165°
2026-05-08 20:10 47.96427 3.08464 27046 ft 440 kts 165°
2026-05-08 20:10 47.93491 3.09772 27043 ft 440 kts 165°
2026-05-08 20:11 47.90555 3.11080 27057 ft 439 kts 165°
2026-05-08 20:11 47.87665 3.12369 27047 ft 439 kts 165°
2026-05-08 20:11 47.84740 3.13673 27044 ft 439 kts 165°
2026-05-08 20:11 47.81812 3.14976 27032 ft 439 kts 165°
2026-05-08 20:12 47.78888 3.16268 27042 ft 438 kts 165°
2026-05-08 20:12 47.75966 3.17557 27032 ft 438 kts 165°
2026-05-08 20:12 47.73042 3.18849 27032 ft 438 kts 165°
2026-05-08 20:12 47.70127 3.20138 27035 ft 437 kts 165°
2026-05-08 20:13 47.67209 3.21426 27040 ft 437 kts 165°
2026-05-08 20:13 47.64295 3.22709 27031 ft 436 kts 165°
2026-05-08 20:13 47.61385 3.23993 27033 ft 436 kts 165°
2026-05-08 20:13 47.58479 3.25273 27029 ft 436 kts 165°
2026-05-08 20:14 47.55568 3.26548 27033 ft 435 kts 165°
2026-05-08 20:14 47.52663 3.27812 27038 ft 435 kts 165°
2026-05-08 20:14 47.49795 3.29058 27033 ft 435 kts 165°
2026-05-08 20:14 47.46896 3.30323 27031 ft 434 kts 165°
2026-05-08 20:15 47.43990 3.31594 27023 ft 434 kts 165°
2026-05-08 20:15 47.41098 3.32862 27021 ft 434 kts 165°
2026-05-08 20:15 47.38202 3.34133 27026 ft 434 kts 165°
2026-05-08 20:15 47.35305 3.35403 27013 ft 434 kts 165°
2026-05-08 20:16 47.32412 3.36664 27014 ft 433 kts 165°
2026-05-08 20:16 47.29522 3.37919 27013 ft 433 kts 165°
2026-05-08 20:16 47.26636 3.39169 27012 ft 433 kts 165°
2026-05-08 20:16 47.23742 3.40421 27014 ft 432 kts 165°
2026-05-08 20:17 47.20863 3.41665 27016 ft 432 kts 165°
2026-05-08 20:17 47.17977 3.42912 27010 ft 432 kts 165°
2026-05-08 20:17 47.15135 3.44136 27013 ft 431 kts 165°
2026-05-08 20:17 47.12259 3.45375 27008 ft 431 kts 165°
2026-05-08 20:18 47.09380 3.46616 27008 ft 430 kts 165°
2026-05-08 20:18 47.06508 3.47855 27010 ft 430 kts 165°
2026-05-08 20:18 47.03634 3.49093 27007 ft 430 kts 165°
2026-05-08 20:18 47.00765 3.50323 27006 ft 430 kts 165°
2026-05-08 20:19 46.97894 3.51551 27004 ft 429 kts 165°
2026-05-08 20:19 46.95025 3.52779 27003 ft 429 kts 165°
2026-05-08 20:19 46.92159 3.54009 27000 ft 429 kts 165°
2026-05-08 20:19 46.89300 3.55235 26998 ft 429 kts 165°
2026-05-08 20:20 46.86439 3.56460 26995 ft 428 kts 165°
2026-05-08 20:20 46.83578 3.57679 26998 ft 428 kts 165°
2026-05-08 20:20 46.80721 3.58895 26970 ft 428 kts 165°
2026-05-08 20:20 46.77868 3.60112 26702 ft 427 kts 165°
2026-05-08 20:21 46.75011 3.61331 26444 ft 427 kts 165°
2026-05-08 20:21 46.72160 3.62543 26183 ft 425 kts 165°
2026-05-08 20:21 46.69348 3.63785 25633 ft 421 kts 163°
2026-05-08 20:21 46.66624 3.65158 25037 ft 418 kts 160°
2026-05-08 20:22 46.63882 3.66670 24430 ft 415 kts 159°
2026-05-08 20:22 46.61243 3.68187 23872 ft 412 kts 159°
2026-05-08 20:22 46.58586 3.69722 23268 ft 409 kts 159°
2026-05-08 20:22 46.55950 3.71221 22718 ft 405 kts 160°
2026-05-08 20:23 46.53342 3.72678 22226 ft 400 kts 160°
2026-05-08 20:23 46.50750 3.74100 21732 ft 396 kts 160°
2026-05-08 20:23 46.48178 3.75494 21270 ft 392 kts 161°
2026-05-08 20:23 46.45629 3.76868 20806 ft 389 kts 161°
2026-05-08 20:24 46.43107 3.78261 20318 ft 387 kts 160°
2026-05-08 20:24 46.40615 3.79691 19841 ft 384 kts 160°
2026-05-08 20:24 46.38195 3.81305 19344 ft 383 kts 152°
2026-05-08 20:24 46.36041 3.83553 18858 ft 383 kts 141°
2026-05-08 20:25 46.34219 3.86362 18483 ft 381 kts 130°
2026-05-08 20:25 46.32619 3.89390 18067 ft 377 kts 130°
2026-05-08 20:25 46.31028 3.92383 17670 ft 374 kts 130°
2026-05-08 20:25 46.29443 3.95357 17281 ft 372 kts 130°
2026-05-08 20:26 46.27867 3.98313 16898 ft 370 kts 130°
2026-05-08 20:26 46.26303 4.01253 16519 ft 368 kts 129°
2026-05-08 20:26 46.24749 4.04179 16139 ft 365 kts 129°
2026-05-08 20:26 46.23225 4.07039 15766 ft 363 kts 129°
2026-05-08 20:27 46.21688 4.09915 15392 ft 361 kts 129°
2026-05-08 20:27 46.20158 4.12775 15024 ft 359 kts 129°
2026-05-08 20:27 46.18636 4.15624 14653 ft 357 kts 129°
2026-05-08 20:27 46.17126 4.18448 14288 ft 355 kts 129°
2026-05-08 20:28 46.15621 4.21259 13926 ft 353 kts 129°
2026-05-08 20:28 46.14124 4.24049 13536 ft 351 kts 129°
2026-05-08 20:28 46.12637 4.26821 13170 ft 349 kts 129°
2026-05-08 20:28 46.11154 4.29589 12805 ft 347 kts 129°
2026-05-08 20:29 46.09684 4.32327 12457 ft 345 kts 129°
2026-05-08 20:29 46.08218 4.35049 12098 ft 342 kts 129°
2026-05-08 20:29 46.06759 4.37752 11747 ft 341 kts 129°
2026-05-08 20:29 46.05312 4.40437 11398 ft 339 kts 129°
2026-05-08 20:30 46.03874 4.43104 11046 ft 337 kts 129°
2026-05-08 20:30 46.02439 4.45759 10703 ft 334 kts 129°
2026-05-08 20:30 46.01044 4.48340 10481 ft 326 kts 129°
2026-05-08 20:30 45.99728 4.50908 10359 ft 313 kts 123°
2026-05-08 20:31 45.98621 4.53516 10217 ft 297 kts 123°
2026-05-08 20:31 45.97553 4.56009 9893 ft 291 kts 123°
2026-05-08 20:31 45.96626 4.58558 9726 ft 287 kts 111°
2026-05-08 20:31 45.96207 4.61365 9589 ft 288 kts 95°
2026-05-08 20:32 45.96346 4.64237 9366 ft 290 kts 79°
2026-05-08 20:32 45.96863 4.67039 9075 ft 289 kts 76°
2026-05-08 20:32 45.97387 4.69818 8769 ft 288 kts 76°
2026-05-08 20:32 45.97905 4.72590 8473 ft 287 kts 77°
2026-05-08 20:33 45.98418 4.75356 8167 ft 285 kts 77°
2026-05-08 20:33 45.98926 4.78110 7870 ft 284 kts 77°
2026-05-08 20:33 45.99431 4.80854 7574 ft 283 kts 76°
2026-05-08 20:33 45.99935 4.83587 7273 ft 282 kts 77°
2026-05-08 20:34 46.00392 4.86330 6974 ft 280 kts 83°
2026-05-08 20:34 46.00435 4.89099 6686 ft 277 kts 97°
2026-05-08 20:34 46.00099 4.94568 6111 ft 276 kts 97°
2026-05-08 20:35 45.99937 4.97332 5816 ft 275 kts 97°
2026-05-08 20:35 45.99664 5.00009 5685 ft 268 kts 108°
2026-05-08 20:35 45.98950 5.02357 5619 ft 244 kts 124°
2026-05-08 20:35 45.97932 5.04169 5469 ft 225 kts 138°
2026-05-08 20:36 45.96722 5.05474 5254 ft 211 kts 153°
2026-05-08 20:36 45.95375 5.06314 5016 ft 215 kts 164°
2026-05-08 20:36 45.93907 5.06691 4769 ft 214 kts 176°
2026-05-08 20:36 45.92421 5.06870 4479 ft 214 kts 176°
2026-05-08 20:37 45.90918 5.07057 4190 ft 216 kts 176°
2026-05-08 20:37 45.89428 5.07240 3922 ft 215 kts 175°
2026-05-08 20:37 45.87928 5.07425 3640 ft 217 kts 175°
2026-05-08 20:37 45.86403 5.07611 3355 ft 224 kts 174°
2026-05-08 20:38 45.84876 5.07797 3064 ft 216 kts 175°
2026-05-08 20:38 45.83395 5.07979 2761 ft 212 kts 175°
2026-05-08 20:38 45.81965 5.08155 2507 ft 203 kts 176°
2026-05-08 20:38 45.80619 5.08319 2234 ft 189 kts 175°
2026-05-08 20:39 45.79350 5.08473 2039 ft 176 kts 175°
2026-05-08 20:39 45.78163 5.08618 1765 ft 165 kts 175°
2026-05-08 20:39 45.77083 5.08749 1555 ft 146 kts 174°
2026-05-08 20:39 45.76117 5.08867 1356 ft 134 kts 174°
2026-05-08 20:40 45.75216 5.08977 1172 ft 127 kts 175°
2026-05-08 20:40 45.74344 5.09083 1005 ft 125 kts 174°
2026-05-08 20:40 45.73485 5.09188 838 ft 123 kts 174°
2026-05-08 20:40 45.72695 5.09291 806 ft 94 kts 174°
2026-05-08 20:41 45.72255 5.09332 813 ft 34 kts 187°
2026-05-08 20:41 45.72061 5.09256 817 ft 24 kts 205°
2026-05-08 20:41 45.71987 5.09148 812 ft 15 kts 260°
2026-05-08 20:41 45.71980 5.09020 811 ft 10 kts 262°
2026-05-08 20:42 45.71971 5.08914 811 ft 11 kts 264°
2026-05-08 20:42 45.71962 5.08797 811 ft 12 kts 264°
2026-05-08 20:42 45.71953 5.08655 807 ft 16 kts 265°
2026-05-08 20:42 45.71959 5.08481 802 ft 19 kts 308°
2026-05-08 20:43 45.72049 5.08451 802 ft 7 kts 354°
2026-05-08 20:43 45.72081 5.08447 803 ft 4 kts 355°
2026-05-08 20:43 45.72117 5.08443 803 ft 6 kts 355°
2026-05-08 20:43 45.72165 5.08438 802 ft 8 kts 355°
2026-05-08 20:44 45.72193 5.08434 801 ft 0 kts 355°
2026-05-08 20:47 45.72194 5.08434 801 ft 1 kts 355°
2026-05-08 20:47 45.72234 5.08425 800 ft 10 kts 343°
2026-05-08 20:48 45.72252 5.08337 798 ft 11 kts 233°
2026-05-08 20:48 45.72201 5.08318 798 ft 12 kts 181°
2026-05-08 20:48 45.72116 5.08294 798 ft 13 kts 197°
2026-05-08 20:48 45.72094 5.08208 796 ft 11 kts 291°
2026-05-08 20:49 45.72114 5.08165 797 ft 0 kts 305°